[[{"header":{"parameterUnit":"m.s-1","parameterCategory":1,"la1":30.2992,"la2":30.254,"lo1":-89.0895,"lo2":-89.0443,"dy":0.0025,"dx":0.0025,"nx":19,"ny":19,"refTime":"2026-03-14T09:00:00:Z","depth":0,"parameterNumber":2,"parameterNumberName":"U-component_of_WINDS"},"data":[0,0,0,-1.9238,-1.9239,-1.932,-1.932,-1.9416,-1.9417,0,0,0,0,0,0,0,0,0,0,0,-1.921,-1.921,-1.9238,-1.924,-1.932,-1.932,-1.9416,-1.9417,0,0,0,0,0,0,0,0,0,0,0,-1.921,-1.921,-1.9211,-1.924,-1.932,-1.932,-1.9416,-1.9358,0,0,0,0,0,0,0,0,0,0,-1.9281,-1.9251,-1.921,-1.9211,-1.924,-1.932,-1.932,-1.9355,-1.9361,-1.9377,0,-1.9389,0,-1.9404,-1.9423,-1.9423,0,0,0,-1.9243,-1.9246,-1.9271,-1.9211,-1.9241,-1.9319,-1.9285,-1.9359,-1.9366,-1.9385,-1.9391,-1.9394,-1.9406,-1.9423,-1.9424,-1.9501,-1.9501,0,0,-1.9238,-1.9222,-1.9266,-1.9275,-1.9262,-1.9282,-1.9287,-1.9363,-1.9368,-1.9391,-1.9397,-1.9408,-1.9424,-1.9425,-1.9501,-1.9501,0,0,0,-1.9223,-1.9219,-1.9243,-1.9271,-1.9286,-1.9284,-1.929,-1.9365,-1.9374,-1.9398,-1.9409,-1.9424,-1.9426,-1.9501,-1.9501,-1.9495,0,0,0,-1.9221,-1.921,-1.924,-1.9231,-1.9285,-1.9326,-1.929,-1.9369,-1.9378,-1.9408,-1.9425,-1.9426,-1.9501,-1.9501,-1.9494,-1.9494,0,0,0,-1.9206,-1.9209,-1.9219,-1.923,-1.9264,-1.9326,-1.9339,-1.9371,-1.9384,-1.9423,-1.9427,-1.9501,-1.9501,-1.9494,-1.9494,-1.9509,0,0,0,-1.9186,-1.9213,-1.9218,-1.9253,-1.9263,-1.9321,-1.9339,-1.9383,-1.9416,-1.9425,-1.9501,-1.9501,-1.9494,-1.9494,-1.9509,-1.9518,-1.9521,0,0,-1.9211,-1.9215,-1.9237,-1.9244,-1.9296,-1.931,-1.9362,-1.9408,-1.9427,-1.9475,-1.9478,-1.9494,-1.9494,-1.9509,-1.9543,-1.9544,0,0,0,-1.9239,-1.9254,-1.9272,-1.9302,-1.9337,-1.9367,-1.9407,-1.9423,-1.9465,-1.9448,-1.9505,-1.9505,-1.9515,-1.952,-1.9522,-1.953,-1.9503,-1.9503,-1.9503,-1.9251,-1.9273,-1.931,-1.9341,-1.937,-1.9411,-1.9436,-1.9466,-1.948,-1.9493,-1.9508,-1.9525,-1.9531,-1.9532,-1.9541,-1.9515,-1.9515,-1.9515,-1.9515,-1.9289,-1.9313,-1.9331,-1.9373,-1.9397,-1.9432,-1.9472,-1.9481,-1.9517,-1.9517,-1.9526,-1.9522,-1.9533,-1.9542,-1.9515,-1.9515,-1.9515,-1.9515,-1.9515,-1.9298,-1.9314,-1.9333,-1.9378,-1.9411,-1.9442,-1.9476,-1.9497,-1.9516,-1.9526,-1.9542,-1.9542,-1.9544,-1.9532,-1.9532,-1.9532,-1.9532,-1.9533,-1.9533,-1.93,-1.9322,-1.9348,-1.9387,-1.9408,-1.9439,-1.9479,-1.9501,-1.9531,-1.9543,-1.9543,-1.9556,-1.9531,-1.9523,-1.9534,-1.9533,-1.9533,-1.9533,-1.9533,-1.9328,-1.9325,-1.9364,-1.9386,-1.9433,-1.9463,-1.9489,-1.9531,-1.9552,-1.9568,-1.9579,-1.9558,-1.9564,-1.9563,-1.9556,-1.9575,-1.9575,-1.9575,-1.9575,-1.9335,-1.934,-1.9385,-1.9417,-1.9452,-1.9479,-1.9523,-1.9554,-1.9586,-1.96,-1.9601,-1.9595,-1.9593,-1.96,-1.9599,-1.9593,-1.962,-1.962,-1.962,-1.9353,-1.9363,-1.9396,-1.9426,-1.9465,-1.9497,-1.9538,-1.9575,-1.9611,-1.9623,-1.9612,-1.961,-1.9601,-1.9597,-1.9607,-1.9604,-1.9594,0,0]},{"header":{"parameterUnit":"m.s-1","parameterCategory":1,"la1":30.2992,"la2":30.254,"lo1":-89.0895,"lo2":-89.0443,"dy":0.0025,"dx":0.0025,"nx":19,"ny":19,"refTime":"2026-03-14T09:00:00:Z","depth":0,"parameterNumber":3,"parameterNumberName":"V-component_of_WINDS"},"data":[0,0,0,1.5876,1.5879,1.6,1.6,1.6151,1.6152,0,0,0,0,0,0,0,0,0,0,0,1.5839,1.584,1.5876,1.5879,1.6,1.6,1.6151,1.6152,0,0,0,0,0,0,0,0,0,0,0,1.5838,1.5839,1.5841,1.5879,1.6,1.6,1.615,1.606,0,0,0,0,0,0,0,0,0,0,1.5943,1.5908,1.5839,1.5841,1.588,1.6,1.6001,1.6056,1.6066,1.6094,0,1.6121,0,1.6139,1.6162,1.6163,0,0,0,1.588,1.59,1.5933,1.5841,1.5881,1.6,1.5946,1.6061,1.6073,1.6107,1.6123,1.6128,1.6141,1.6163,1.6164,1.6327,1.6328,0,0,1.5873,1.586,1.5926,1.5941,1.5923,1.5942,1.5949,1.6068,1.6084,1.6123,1.6132,1.6144,1.6164,1.6165,1.6327,1.6327,0,0,0,1.5853,1.5855,1.5886,1.5934,1.5957,1.5945,1.5954,1.6078,1.609,1.6134,1.6146,1.6165,1.6167,1.6326,1.6327,1.6349,0,0,0,1.5849,1.5843,1.5883,1.5876,1.5954,1.6019,1.5961,1.6081,1.6095,1.6145,1.6165,1.6168,1.6325,1.6326,1.6347,1.6361,0,0,0,1.5831,1.5841,1.5859,1.5875,1.5927,1.6018,1.6036,1.6085,1.6103,1.6163,1.6169,1.6325,1.6326,1.6345,1.6358,1.6399,0,0,0,1.5808,1.5877,1.5859,1.594,1.5926,1.6031,1.6035,1.6114,1.6169,1.6166,1.6325,1.6327,1.6344,1.6356,1.6397,1.6431,1.6444,0,0,1.5888,1.5886,1.5935,1.5922,1.6027,1.6014,1.6122,1.6184,1.6202,1.6284,1.6288,1.6347,1.6358,1.6399,1.6525,1.6535,0,0,0,1.5956,1.5991,1.6022,1.6073,1.6122,1.6165,1.6212,1.6235,1.6305,1.6242,1.6375,1.6381,1.6406,1.6422,1.6431,1.6452,1.6334,1.6334,1.6334,1.605,1.6068,1.615,1.6183,1.6232,1.6279,1.632,1.6359,1.6364,1.6395,1.6419,1.6493,1.6512,1.6519,1.6541,1.6439,1.6439,1.6439,1.6439,1.6167,1.6218,1.6222,1.6303,1.6321,1.6389,1.6436,1.6437,1.6501,1.6477,1.6499,1.647,1.653,1.6549,1.6441,1.6441,1.6441,1.6441,1.644,1.6229,1.6257,1.6284,1.6358,1.6413,1.6444,1.6505,1.652,1.6535,1.6557,1.6583,1.6583,1.6583,1.6569,1.6569,1.6569,1.6569,1.6569,1.657,1.6283,1.6312,1.6362,1.6419,1.6453,1.6499,1.6546,1.6579,1.662,1.6626,1.6626,1.6626,1.6533,1.6508,1.6574,1.6573,1.6572,1.6572,1.6572,1.6393,1.637,1.6448,1.6482,1.6548,1.6601,1.6619,1.6685,1.6715,1.6744,1.674,1.6668,1.6668,1.6661,1.664,1.6736,1.6736,1.6736,1.6736,1.6445,1.6446,1.6528,1.658,1.6633,1.6657,1.6742,1.6778,1.6812,1.6831,1.6819,1.6794,1.6786,1.679,1.678,1.6761,1.6886,1.6886,1.6887,1.6513,1.652,1.659,1.6623,1.6676,1.672,1.6799,1.6858,1.6892,1.6893,1.6846,1.6839,1.6798,1.6784,1.6784,1.6768,1.6734,0,0]}]]